Terminal Aerodrome Forecast
Issued by NWS

Home | Current Version | Previous Version | Graphics & Text | Print | Product List | Glossary On
Versions: 1 2 3 4 5 6 7 8 9 10 11 12 13 14 15
932
FTUS43 KMPX 191507 AAB
TAFRNH
TAF AMD
KRNH 191507Z 1915/2012 26005KT P6SM SCT040
     FM191700 23006KT P6SM FEW040
     FM200000 18003KT P6SM SCT250=

USA.gov is the U.S. government's official web portal to all federal, state and local government web resources and services.